sat.trackr.live / text

‹ back to catalog

STARLINK-37471

NORAD 68802 · 2026-089A

PAYLOAD ACTIVE UNKNOWN

§ Identity

Operator
Country
US
Launch date
2026-04-23
Launch site
AFWTR
Launch vehicle
Mass (kg)
RCS (m²)

Purposes: comms

External: N2YO · Heavens-Above · Gunter

§ Orbital elements

Epoch: 2026-09-20T01:01:46.490016Z

Period
93.91 min
Inclination
97.2873°
Eccentricity
0.0001432
Mean motion
15.33431160 rev/d
Perigee alt
464.6 km
Apogee alt
466.6 km
Semi-major
6,843.7 km
B*
4.1707e-4
RAAN
108.7289°
Arg perigee
74.7416°
Mean anomaly
285.3985°
Rev number
2,318

§ Raw data

STARLINK-374711 68802U 26089A   26263.04289919  .00013408  00000+0  41707-3 0  99972 68802  97.2873 108.7289 0001432  74.7416 285.3985 15.33431160 23187

JSON: /api/v1/satellites/68802 · /tle

For live sub-satellite position, see the globe view (requires WebGL).

§ Visibility from observer

Set your observer location to see the next 7 days of passes ≥ 10°. The values pass through the URL so the page stays shareable.

No JS? Fill the form by hand. The geolocation button needs JavaScript.